#timestamp,LO_Frequency,Hit,StdDev 
1650348015.4,286046998.6,N
1650348035.3,286047002.6,N
1650348055.1,286047002.6,N
1650348075.9,286047001.4,N
1650348095.7,286047001.8,N
1650348115.5,286047003.6,N
1650348135.4,286047002.1,N
1650348155.2,286047000.2,N
1650348175.0,286047000.1,N
1650348175.9,286047000.1,N
1650348195.8,286047000.0,N
1650348215.6,286047001.3,N
1650348235.5,286047001.7,N
1650348255.3,286047001.8,N
1650348275.1,286047003.7,N
1650348295.9,286047004.2,N
1650348315.1,286047001.8,N
1650348316.0,286047001.8,N
1650348335.8,286046998.5,N
1650348355.7,286047000.7,N
1650348375.5,286046998.1,N
1650348395.3,286047002.4,N
1650348415.2,286047001.2,N
1650348435.0,286046999.8,N
1650348435.9,286046999.8,N
1650348455.8,286047004.4,N
1650348475.6,286047001.3,N
1650348495.4,286047002.4,N
1650348515.3,286047002.6,N
1650348535.1,286047001.2,N
1650348555.8,286046998.6,N
1650348575.7,286047000.8,N
1650348595.5,286046999.9,N
1650348615.4,286047000.8,N
1650348635.2,286046999.9,N
1650348655.0,286047000.6,N
1650348655.9,286047000.6,N
1650348675.8,286047001.0,N
1650348695.6,286047000.2,N
1650348715.4,286047000.2,N
1650348735.3,286046999.7,N
1650348755.1,286047000.5,N
1650348775.9,286046998.9,N
1650348795.7,286046998.9,N
1650348815.5,286046998.9,N
1650348835.4,286046998.7,N
1650348855.2,286046999.0,N
1650348875.0,286047001.0,N
1650348875.9,286047001.0,N
1650348895.8,286047000.8,N
1650348915.6,286047000.7,N
1650348935.5,286047001.4,N
1650348955.3,286047002.5,N
1650348975.1,286046999.9,N
1650348995.9,286047001.1,N
1650349015.7,286047002.7,N
1650349035.5,286047001.3,N
1650349055.4,286047000.1,N
1650349075.2,286047001.0,N
1650349095.1,286047000.8,N
1650349096.0,286047000.8,N
1650349115.8,286046998.1,N
1650349135.6,286047000.0,N
1650349155.5,286046998.5,N
1650349175.3,286046998.1,N
1650349195.1,286046998.6,N
1650349215.9,286046999.1,N
1650349235.7,286046999.3,N
1650349255.6,286047000.5,N
1650349275.4,286047002.7,N
1650349295.2,286047002.7,N
1650349315.1,286047001.5,N
1650349316.0,286047001.5,N
1650349335.8,286047002.3,N
1650349355.7,286047001.4,N
1650349375.5,286047001.7,N
1650349395.3,286046999.9,N
1650349415.2,286047000.0,N
1650349435.0,286047000.7,N
1650349435.9,286047000.7,N
1650349455.7,286047000.8,N
1650349475.6,286046998.2,N
1650349495.4,286047001.1,N
1650349515.3,286046998.2,N
1650349535.1,286046998.1,N
1650349536.0,286046998.1,N
1650349555.8,286047000.8,N
1650349575.7,286047000.8,N
1650349595.5,286047002.8,N
1650349615.3,286047002.3,N
1650349635.2,286047000.5,N
1650349655.0,286046998.2,N
1650349655.9,286046998.2,N
1650349675.8,286046998.2,N
1650349695.6,286046999.1,N
1650349715.4,286047001.0,N
1650349735.3,286047002.0,N
1650349755.1,286047003.9,N
1650349775.9,286047002.8,N
1650349795.7,286047002.6,N
1650349815.5,286047001.6,N
1650349835.4,286047004.3,N
1650349855.2,286047001.5,N
1650349875.0,286047002.2,N
1650349875.9,286047002.2,N
1650349895.8,286047002.6,N
1650349915.6,286046999.8,N
1650349935.5,286047002.2,N
1650349955.3,286047002.1,N
1650349975.1,286047002.5,N
1650349995.9,286047000.8,N
1650350015.7,286047000.8,N
1650350035.6,286046998.2,N
1650350055.4,286047000.1,N
1650350075.2,286047000.2,N
1650350095.1,286047001.1,N
1650350096.0,286047001.1,N
1650350115.8,286047001.2,N
1650350135.7,286046999.8,N
1650350155.5,286047002.8,N
1650350175.3,286046999.8,N
1650350195.2,286047000.6,N
1650350215.0,286047002.3,N
1650350215.9,286047002.3,N
1650350235.8,286046999.9,N
1650350255.6,286047001.7,N
1650350275.4,286047002.2,N
1650350295.3,286046999.8,N
1650350315.1,286046999.8,N
1650350335.8,286047003.9,Y
1650350355.7,286047001.9,P
1650350375.5,286047002.6,P
1650350395.4,286047001.4,N
1650350415.2,286047002.1,Y
1650350435.0,286047001.0,P
1650350435.9,286047001.0,N
1650350455.8,286046998.1,P
1650350475.6,286046998.1,N
1650350495.5,286046998.8,N
1650350515.3,286046998.3,N
1650350535.1,286046998.5,N
1650350555.9,286047000.7,N
1650350575.7,286047001.1,N
1650350595.6,286047000.8,N
1650350615.4,286047001.2,N
1650350635.2,286047001.0,N
1650350655.1,286046998.1,N
1650350656.0,286046998.1,N
1650350675.8,286046999.1,N
1650350695.7,286046999.1,N
1650350715.5,286046999.4,N
1650350735.3,286046998.5,N
1650350755.2,286047000.5,N
1650350775.0,286047001.1,N
1650350775.9,286047001.1,N
1650350795.7,286047000.6,N
1650350815.6,286047000.5,N
1650350835.4,286046999.5,N
1650350855.3,286046997.1,N
1650350875.1,286046997.5,N
1650350876.0,286046997.5,N
1650350895.8,286046997.3,N
1650350915.7,286046997.3,N
1650350935.5,286046996.6,N
1650350955.3,286046999.2,N
1650351005.2,286046998.4,E
1650351015.1,286046998.6,N
1650351035.9,286047001.1,P
1650351055.7,286046997.0,N
1650351075.5,286046999.3,N
1650351095.4,286046997.8,N
1650351115.2,286046997.0,N
1650351135.1,286046997.2,N
1650351136.0,286046997.2,N
1650351155.8,286046995.4,Y
1650351175.6,286047001.1,P
1650351195.5,286046999.8,N
1650351215.3,286047002.5,N
1650351235.2,286047001.6,N
1650351255.9,286047003.4,N
1650351275.7,286047003.7,N
1650351295.6,286047005.0,N
1650351315.4,286047003.2,N
1650351335.2,286047003.7,N
1650351355.1,286047003.7,N
1650351356.0,286047003.7,N
1650351375.8,286047001.3,N
1650351395.7,286047003.3,N
1650351415.5,286047005.1,N
1650351435.3,286047006.3,Y
1650351455.2,286047002.6,P
1650351475.0,286047001.5,P
1650351475.9,286047001.5,N
1650351495.8,286047001.9,Y
1650351515.6,286046998.4,P
1650351535.4,286046996.6,N
1650351555.3,286046996.6,N
1650351575.1,286046996.5,N
1650351595.8,286047000.8,N
